FW0827 Weather Reports


Display with metric or nautical units.
time (UTC)temp
F
wind
direction
speed
MPH
gust
MPH
rain 1hr
in
rain 24hr
in
rain mn
in
humidity
%
barometer
mb
20260905081706 68 298 0.0 0.0 0.00 0.04 0.00 99 1011.1
20260905081205 68 298 0.0 0.0 0.00 0.04 0.00 99 1011.1
20260905080204 68 294 0.0 0.0 0.00 0.04 0.00 99 1011.0
20260905075704 68 357 0.0 0.0 0.00 0.04 0.00 99 1011.2
20260905075204 68 357 0.0 0.0 0.00 0.04 0.00 99 1011.2
20260905074704 68 357 0.0 0.0 0.00 0.04 0.00 99 1011.1
20260905074204 67 357 0.0 0.0 0.00 0.04 0.00 99 1011.3
20260905073704 67 357 0.0 0.0 0.00 0.04 0.00 99 1011.3
20260905073204 67 357 0.0 0.0 0.00 0.04 0.00 99 1011.3
20260905072705 67 357 0.0 0.0 0.00 0.04 0.00 99 1011.2
20260905072204 67 357 0.0 0.0 0.00 0.04 0.00 99 1011.2
20260905071704 67 357 0.0 0.0 0.00 0.04 0.00 99 1011.2
20260905071205 67 357 0.0 0.0 0.00 0.04 0.00 99 1011.2
20260905070704 68 357 0.0 0.0 0.00 0.04 0.00 99 1011.3
20260905070204 68 357 0.0 0.0 0.00 0.04 0.00 99 1011.3
20260905065705 68 357 0.0 0.0 0.00 0.04 0.00 99 1011.3
20260905065204 68 357 0.0 0.0 0.00 0.04 0.00 99 1011.4
20260905064703 67 357 0.0 0.0 0.00 0.04 0.00 99 1011.4
20260905064204 68 357 0.0 0.0 0.00 0.04 0.00 99 1011.5
20260905063704 68 357 0.0 0.0 0.00 0.04 0.00 99 1011.4
20260905063204 68 357 0.0 0.0 0.00 0.04 0.00 99 1011.3
20260905062704 69 357 0.0 0.0 0.00 0.04 0.00 99 1011.5
20260905061205 69 357 0.0 1.0 0.00 0.04 0.00 99 1011.5
20260905060704 69 357 0.0 0.0 0.00 0.04 0.00 99 1011.5
20260905055705 69 357 0.0 0.0 0.00 0.04 0.00 99 1011.3
20260905055204 69 357 0.0 0.0 0.00 0.04 0.00 99 1011.7
20260905054704 70 357 0.0 0.0 0.00 0.04 0.00 99 1011.6
20260905054204 70 357 0.0 0.0 0.00 0.04 0.00 99 1011.6
20260905053705 70 357 0.0 0.0 0.00 0.04 0.00 99 1011.7
20260905053206 70 357 0.0 1.0 0.00 0.04 0.00 99 1011.6
20260905052704 70 357 0.0 1.0 0.00 0.04 0.00 99 1011.7
20260905052204 70 357 0.0 0.0 0.00 0.04 0.00 99 1011.8
20260905051704 70 357 0.0 0.0 0.00 0.04 0.00 99 1011.9
20260905051205 71 357 0.0 0.0 0.00 0.04 0.00 99 1011.8
20260905050704 71 357 0.0 0.0 0.00 0.04 0.00 99 1011.9
20260905045705 71 357 0.0 0.0 0.02 0.04 0.00 99 1011.9
20260905045204 71 356 0.0 0.0 0.02 0.04 0.00 99 1011.9
20260905044706 71 356 0.0 0.0 0.02 0.04 0.00 99 1011.8
20260905043204 71 356 0.0 0.0 0.03 0.04 0.00 99 1012.1
20260905042704 72 356 0.0 1.0 0.03 0.04 0.00 99 1012.2
20260905042205 72 356 0.0 1.0 0.03 0.04 0.00 99 1012.3
20260905041704 72 356 0.0 1.0 0.04 0.04 0.00 99 1012.3
20260905041204 72 356 0.0 0.0 0.00 0.04 0.00 99 1012.3
20260905040707 72 357 0.0 1.0 0.00 0.04 0.00 99 1012.3
20260905035704 72 16 1.0 8.0 0.02 1.32 0.02 99 1012.5
20260905034705 73 332 1.0 1.0 0.02 1.32 0.02 99 1012.7
20260905034204 73 331 1.0 3.0 0.02 1.32 0.02 99 1012.3
20260905033705 73 332 1.0 3.0 0.02 1.32 0.02 99 1012.2
20260905033206 73 331 0.0 0.0 0.01 1.31 0.01 99 1012.3
20260905032704 74 332 0.0 0.0 0.01 1.31 0.01 99 1012.2
20260905032204 73 287 0.0 0.0 0.01 1.31 0.01 99 1012.4
20260905031204 74 284 0.0 0.0 0.00 1.30 0.00 99 1012.3
20260905030705 74 284 0.0 0.0 0.00 1.30 0.00 99 1012.1
20260905030204 74 284 0.0 0.0 0.00 1.30 0.00 99 1012.1
20260905025704 74 284 0.0 0.0 0.00 1.30 0.00 99 1012.1
20260905025204 74 284 0.0 0.0 0.00 1.30 0.00 99 1011.9
20260905024705 74 284 0.0 0.0 0.00 1.30 0.00 99 1011.9
20260905024207 74 284 0.0 1.0 0.00 1.30 0.00 99 1012.0
20260905023705 74 282 0.0 1.0 0.00 1.30 0.00 99 1011.8
20260905023204 74 321 0.0 0.0 0.00 1.30 0.00 99 1012.1
20260905022204 74 321 0.0 0.0 0.00 1.30 0.00 98 1012.0
20260905021706 74 321 0.0 0.0 0.00 1.30 0.00 98 1011.9
20260905021204 74 321 0.0 0.0 0.00 1.30 0.00 98 1011.8
20260905020705 74 321 0.0 0.0 0.00 1.30 0.00 98 1012.1
20260905020204 74 321 0.0 0.0 0.00 1.30 0.00 98 1011.8
20260905015705 74 321 0.0 0.0 0.00 1.30 0.00 97 1012.0
20260905015204 74 321 0.0 0.0 0.00 1.30 0.00 97 1011.9
20260905014705 75 321 0.0 0.0 0.00 1.30 0.00 97 1012.1
20260905014205 74 321 0.0 0.0 0.00 1.30 0.00 97 1011.9
20260905013704 74 321 0.0 0.0 0.00 1.30 0.00 96 1012.1
20260905013206 75 321 0.0 0.0 0.00 1.30 0.00 96 1011.9
20260905012704 75 321 0.0 0.0 0.00 1.30 0.00 96 1011.9
20260905012207 74 321 0.0 0.0 0.00 1.30 0.00 96 1011.8
20260905011705 74 326 0.0 0.0 0.00 1.30 0.00 96 1012.0
20260905011204 74 320 0.0 0.0 0.00 1.30 0.00 97 1011.7
20260905010704 75 331 0.0 0.0 0.00 1.30 0.00 97 1011.8
20260905010204 74 321 0.0 0.0 0.00 1.30 0.00 97 1011.9
20260905005705 75 321 0.0 0.0 0.00 1.30 0.00 97 1012.0
20260905005205 75 324 0.0 0.0 0.00 1.30 0.00 97 1012.1
20260905004704 75 322 0.0 1.0 0.00 1.30 0.00 97 1011.9
20260905004204 75 322 0.0 1.0 0.00 1.30 0.00 97 1011.9
20260905003705 75 318 0.0 0.0 0.00 1.30 0.00 96 1012.2
20260905003204 76 316 0.0 0.0 0.00 1.30 0.00 96 1012.0
20260905002705 76 315 0.0 0.0 0.00 1.30 0.00 96 1011.9
20260905002205 76 315 0.0 0.0 0.00 1.30 0.00 95 1011.6
20260905001705 76 315 0.0 0.0 0.00 1.30 0.00 95 1011.7
20260905000705 76 315 0.0 0.0 0.00 1.30 0.00 95 1011.9
20260905000205 76 315 0.0 0.0 0.00 1.30 0.00 96 1011.9
20260904235704 76 316 0.0 0.0 0.00 1.30 0.00 95 1011.7
20260904235204 76 315 0.0 0.0 0.00 1.30 0.00 94 1011.6
20260904234704 76 315 0.0 0.0 0.00 1.30 0.00 94 1011.6
20260904233204 77 316 0.0 0.0 0.00 1.30 0.00 92 1011.6
20260904232705 77 316 0.0 0.0 0.00 1.30 0.00 91 1011.5
20260904232204 78 316 0.0 0.0 0.00 1.30 0.00 91 1011.3
20260904231704 78 316 0.0 0.0 0.00 1.30 0.00 91 1011.3
20260904231205 78 316 0.0 0.0 0.00 1.30 0.00 90 1011.5
20260904230704 78 316 0.0 0.0 0.00 1.30 0.00 90 1011.3
20260904230204 78 316 0.0 0.0 0.00 1.30 0.00 89 1011.6
20260904225704 79 316 0.0 0.0 0.00 1.30 0.00 88 1011.6
20260904225205 79 316 0.0 0.0 0.00 1.30 0.00 88 1011.5
20260904224705 79 316 0.0 0.0 0.00 1.30 0.00 87 1011.8
20260904224204 80 316 0.0 0.0 0.00 1.30 0.00 86 1011.7
20260904223204 80 316 0.0 0.0 0.00 1.30 0.00 84 1011.9
20260904222705 81 314 0.0 0.0 0.00 1.30 0.00 83 1011.8
20260904222205 81 312 0.0 0.0 0.00 1.30 0.00 84 1011.8
20260904221704 81 312 0.0 1.0 0.00 1.30 0.00 84 1011.9
20260904221204 81 295 1.0 1.0 0.00 1.30 0.00 83 1012.2
20260904220704 81 300 0.0 0.0 0.00 1.30 0.00 85 1011.9
20260904215205 82 304 0.0 0.0 0.00 1.30 0.00 83 1012.3
20260904214204 81 304 0.0 0.0 0.00 1.30 0.00 82 1012.1
20260904213705 81 304 0.0 0.0 0.00 1.30 0.00 81 1012.2
20260904213205 81 304 0.0 0.0 0.00 1.30 0.00 81 1012.1
20260904212704 81 304 0.0 1.0 0.00 1.30 0.00 82 1012.2
20260904212204 81 297 0.0 1.0 0.00 1.30 0.00 81 1012.2
20260904211204 82 309 0.0 3.0 0.00 1.30 0.00 80 1012.3
20260904210704 83 309 0.0 0.0 0.00 1.30 0.00 81 1012.3
20260904210205 84 310 0.0 0.0 0.00 1.30 0.00 78 1012.4
20260904204704 84 314 0.0 1.0 0.00 1.30 0.00 79 1012.2
20260904204204 84 316 0.0 0.0 0.00 1.30 0.00 77 1012.0
20260904203204 83 340 0.0 1.0 0.00 1.30 0.00 77 1011.8
20260904202204 84 311 0.0 1.0 0.00 1.30 0.00 74 1011.8
20260904201204 84 319 0.0 3.0 0.00 1.30 0.00 76 1011.9
20260904200704 83 319 0.0 0.0 0.00 1.30 0.00 76 1012.3
20260904195705 82 311 0.0 1.0 0.00 1.30 0.00 77 1012.4
20260904195206 82 14 0.0 3.0 0.00 1.30 0.00 78 1012.6
20260904194704 82 18 0.0 3.0 0.00 1.30 0.00 76 1012.6
20260904193704 83 284 1.0 7.0 0.00 1.30 0.00 76 1012.8
20260904193204 83 335 2.0 7.0 0.00 1.30 0.00 75 1013.0
20260904192705 83 321 2.0 7.0 0.00 1.30 0.00 74 1012.8
20260904191204 85 320 1.0 7.0 0.00 1.30 0.00 75 1012.8
20260904190704 85 317 2.0 7.0 0.00 1.30 0.00 72 1012.9
20260904185704 85 303 0.0 3.0 0.00 1.30 0.00 73 1013.2
20260904185205 83 303 0.0 3.0 0.00 1.30 0.00 78 1013.1
20260904184706 83 11 0.0 3.0 0.00 1.30 0.00 77 1013.1
20260904184204 83 319 1.0 3.0 0.00 1.30 0.00 75 1013.2
20260904183704 82 307 2.0 5.0 0.00 1.30 0.00 75 1013.3
20260904183204 83 1 0.0 3.0 0.00 1.30 0.00 75 1013.2
20260904181704 86 303 2.0 5.0 0.00 1.30 0.00 72 1013.3
20260904181205 86 288 1.0 5.0 0.00 1.30 0.00 71 1013.3
20260904180204 85 305 1.0 3.0 0.00 1.30 0.00 74 1013.4
20260904175704 85 290 0.0 8.0 0.00 1.30 0.00 73 1013.4
20260904174704 85 296 1.0 5.0 0.00 1.30 0.00 74 1013.5
20260904174205 85 305 1.0 5.0 0.00 1.30 0.00 76 1013.4
20260904173705 84 300 0.0 9.0 0.00 1.30 0.00 74 1013.3
20260904173204 84 328 3.0 7.0 0.00 1.30 0.00 74 1013.4
20260904172704 84 295 2.0 9.0 0.00 1.30 0.00 76 1013.3
20260904172204 83 39 5.0 16.0 0.00 1.30 0.00 77 1013.4
20260904171206 82 350 2.0 8.0 0.00 1.30 0.00 77 1013.5
20260904170704 83 325 1.0 7.0 0.00 1.30 0.00 75 1013.5
20260904170206 83 15 1.0 7.0 0.00 1.30 0.00 76 1013.6
20260904165704 82 7 3.0 9.0 0.00 1.30 0.00 77 1013.7
20260904165205 82 342 2.0 12.0 0.00 1.30 0.00 78 1013.7
20260904164704 82 340 2.0 3.0 0.00 1.30 0.00 78 1013.6
20260904164204 82 259 1.0 7.0 0.00 1.30 0.00 76 1013.8
20260904163704 83 326 5.0 13.0 0.00 1.30 0.00 77 1013.5
20260904163204 83 323 1.0 3.0 0.00 1.30 0.00 78 1013.5
20260904162705 82 324 0.0 9.0 0.00 1.30 0.00 78 1013.5
20260904162204 82 300 3.0 12.0 0.00 1.30 0.00 77 1013.9
20260904161705 82 338 2.0 13.0 0.00 1.30 0.00 78 1013.9
20260904160704 80 327 2.0 8.0 0.00 1.30 0.00 78 1013.7
20260904160205 81 346 1.0 5.0 0.00 1.30 0.00 79 1013.7
20260904155705 81 284 1.0 3.0 0.00 1.30 0.00 79 1013.9
20260904155205 80 317 2.0 7.0 0.00 1.30 0.00 80 1013.7
20260904154705 80 345 2.0 8.0 0.00 1.30 0.00 80 1013.9
20260904153704 82 280 1.0 9.0 0.00 1.30 0.00 78 1013.9
20260904153205 82 342 3.0 9.0 0.00 1.30 0.00 78 1013.8
20260904152205 82 313 1.0 5.0 0.00 1.30 0.00 76 1013.8
20260904151706 82 12 1.0 5.0 0.00 1.30 0.00 80 1013.8
20260904151204 82 291 1.0 9.0 0.00 1.30 0.00 78 1013.8
20260904150704 80 305 4.0 12.0 0.00 1.30 0.00 80 1013.7
20260904150204 81 324 6.0 12.0 0.00 1.30 0.00 81 1013.8
20260904145704 80 356 3.0 12.0 0.00 1.30 0.00 81 1013.9
20260904145205 80 314 3.0 9.0 0.00 1.30 0.00 82 1013.9
20260904144703 80 303 2.0 9.0 0.00 1.30 0.00 81 1014.0
20260904144205 81 0 2.0 9.0 0.00 1.30 0.00 82 1014.0
20260904143704 80 353 2.0 13.0 0.00 1.30 0.00 83 1013.8
20260904142704 80 313 2.0 8.0 0.00 1.30 0.00 82 1014.0
20260904141705 80 352 5.0 12.0 0.00 1.30 0.00 81 1013.6
20260904140704 80 338 5.0 9.0 0.00 1.30 0.00 80 1013.5
20260904140204 79 21 5.0 9.0 0.00 1.30 0.00 81 1013.7
20260904135204 79 336 1.0 8.0 0.00 1.30 0.00 85 1013.4
20260904134703 79 302 4.0 8.0 0.00 1.30 0.00 82 1013.4
20260904134204 79 6 3.0 9.0 0.00 1.30 0.00 85 1013.5
20260904133704 79 20 2.0 8.0 0.00 1.30 0.00 84 1013.7
20260904133204 78 330 1.0 12.0 0.00 1.30 0.00 85 1013.5
20260904132703 79 355 2.0 12.0 0.00 1.30 0.00 85 1013.7
20260904132205 78 279 2.0 12.0 0.00 1.30 0.00 86 1013.7
20260904131705 78 327 5.0 13.0 0.00 1.30 0.00 85 1013.9
20260904131204 78 307 5.0 14.0 0.00 1.30 0.00 89 1013.6
20260904130704 78 339 2.0 9.0 0.00 1.30 0.00 85 1013.7
20260904130204 77 324 3.0 9.0 0.00 1.30 0.00 88 1013.6
20260904125704 76 299 4.0 12.0 0.00 1.30 0.00 89 1013.7
20260904125204 76 335 5.0 17.0 0.00 1.30 0.00 88 1013.7
20260904124704 76 337 2.0 12.0 0.00 1.30 0.00 87 1013.9
20260904123704 76 332 5.0 21.0 0.00 1.30 0.00 90 1013.8
20260904123204 76 323 5.0 14.0 0.00 1.30 0.00 88 1013.8
20260904122204 76 297 1.0 12.0 0.00 1.30 0.00 88 1014.0
20260904121704 76 279 3.0 12.0 0.00 1.30 0.00 88 1013.8
20260904121205 76 273 1.0 5.0 0.00 1.30 0.00 88 1013.8
20260904120704 76 153 2.0 8.0 0.00 1.30 0.00 89 1013.8
20260904120204 75 319 3.0 8.0 0.00 1.30 0.00 91 1013.8
20260904115704 74 316 1.0 7.0 0.00 1.30 0.00 91 1013.8
20260904115204 74 330 3.0 7.0 0.00 1.30 0.00 91 1013.8
20260904114705 74 300 0.0 3.0 0.00 1.31 0.00 92 1013.8
20260904114204 73 309 0.0 5.0 0.00 1.31 0.00 93 1013.6
20260904113703 73 318 1.0 7.0 0.00 1.31 0.00 94 1013.6
20260904113204 72 345 1.0 7.0 0.00 1.31 0.00 95 1013.7
20260904112704 71 296 1.0 3.0 0.00 1.31 0.00 96 1013.9
20260904112203 71 309 2.0 3.0 0.00 1.31 0.00 97 1013.5
20260904110703 69 305 0.0 3.0 0.00 1.31 0.00 99 1013.3
20260904110204 69 282 1.0 1.0 0.00 1.31 0.00 99 1013.3
20260904105703 69 312 1.0 1.0 0.00 1.31 0.00 99 1013.4
20260904104703 69 317 0.0 1.0 0.00 1.31 0.00 99 1013.0
20260904104204 70 296 0.0 0.0 0.00 1.31 0.00 98 1012.9
20260904103705 70 296 0.0 1.0 0.00 1.32 0.00 98 1013.0
20260904103204 70 291 0.0 1.0 0.00 1.32 0.00 98 1013.0
20260904102705 70 284 0.0 1.0 0.00 1.32 0.00 97 1013.0
20260904102204 70 288 0.0 5.0 0.00 1.32 0.00 97 1012.6
20260904101703 70 309 2.0 7.0 0.00 1.32 0.00 97 1012.8
20260904101204 70 305 2.0 7.0 0.00 1.32 0.00 97 1012.6
20260904100704 70 343 0.0 1.0 0.00 1.32 0.00 98 1012.4
20260904100204 70 278 0.0 1.0 0.00 1.32 0.00 98 1012.7
20260904095704 70 273 0.0 3.0 0.00 1.32 0.00 97 1012.6
20260904095205 70 287 0.0 5.0 0.00 1.32 0.00 97 1012.7
20260904094704 70 283 1.0 3.0 0.00 1.32 0.00 97 1012.8
20260904094203 70 286 0.0 1.0 0.00 1.32 0.00 97 1012.8
20260904093704 70 297 0.0 1.0 0.00 1.32 0.00 97 1012.7
20260904092703 70 325 0.0 1.0 0.00 1.33 0.00 96 1012.7
20260904092204 71 305 0.0 0.0 0.00 1.33 0.00 96 1012.8
20260904090703 71 331 0.0 1.0 0.00 1.36 0.00 95 1013.1
20260904085703 71 284 1.0 3.0 0.00 1.40 0.00 96 1013.0
20260904085204 71 284 0.0 1.0 0.00 1.42 0.00 96 1013.0
20260904084704 71 284 0.0 1.0 0.00 1.43 0.00 96 1013.0
20260904084204 71 284 0.0 3.0 0.00 1.44 0.00 96 1013.0
20260904083704 71 284 0.0 3.0 0.00 1.45 0.00 97 1013.0
20260904083205 71 17 1.0 1.0 0.00 1.47 0.00 98 1013.0
20260904082705 71 301 0.0 1.0 0.00 1.50 0.00 99 1013.3
20260904082204 71 297 0.0 1.0 0.00 1.51 0.00 99 1013.1